DECAYED
Showing default

DROID-001, 56965 (Decayed)

Orbit data source: Space-Track

DROID-001, 56965 was a payload satellite owned by Turion Space (US) in LEO that was launched on Mon, 12 Jun 2023 UTC via an FALCON 9 launch vehicle from the Air Force Western Test Range (AFWTR). Payload-class satellites include a variety of spacecraft equipped with specific instruments for various scientific and technological missions. These include communications satellites like Starlink; space stations such as the ISS; scientific satellites like the Hubble; Earth observation satellites from companies like Planet Labs, Umbra, and HawkEye 360; GPS; miniature CubeSats for education and research; and military/defense satellites.

Not visible in the next 10 days
Identifier
56965, 2023-084AK
Orbit
Decayed
Country
Flag of USUS
Related business
Manufacturer
NanoAvionics
Mission
Decayed Commercial Technology
Bus & Motor
CUBESAT MP42H, Unknown motor
Mass
32 kg wet, 32 kg dry
Launch date (UTC)
2023-06-12 (3 years ago)
Launch vehicle
FALCON 9
Launch site
Air Force Western Test Range (AFWTR)
Object type
Payload
Rocket body
Debris
Shape & HBR
Box + 2 Pan, 0.4 m
Radar Cross Section
0.257 m², Medium (>0.1 m² and < 1m²)

Expand to show TLE details & history
Last TLE update: 7 months ago

TLE from 7 months ago
0 DROID-001
1 56965U 23084AK  26059.12407982  .15531786  27588-5  16146-3 0  9995
2 56965  97.5587 217.3641 0009709 247.4524 112.5754 16.50520813152173
Epoch: 2026-02-28T02:58Z
TLE epoch observation values (Epoch: 2026-02-28T02:58:40.496Z)
Latitude
0.00004°
Longitude
14.74466°
Altitude
143.659 km
Speed
7.818 km/s
True Right ascension
14h 29m 27s
True Declination
0° 00' 00"
Sunlit
Object was in full shadow at epoch
Visualization orbit readout
Latitude
Unknown
Longitude
Unknown
Altitude
Unknown
Speed
Unknown
Apparent Right ascension
Unknown
Apparent Declination
Unknown
Sunlit
N/A
Visualization observer readout
Local Sidereal Time
06:01:39
Azimuth
Unknown
Elevation
Unknown
Doppler factor
Unknown
Orbital elements
Apogee altitude
141.089 km
Perigee altitude
128.442 km
Semi-major axis
6,512.903 km
Eccentricity
0.00097
Inclination
97.5587°
RAAN
217.3641°
Arg. of periapsis
247.4524°
True anomaly
112.67808°
Mean anomaly
112.5754°
Eccentric anomaly
112.62675°
Mean motion
4.12935 °/min
Orbital period
87.18 mins
BSTAR
0.00016146
Loading maneuver chart data...
Computing Atmospheric mass density...

Documentation

Showing up to 5 results
|